SJX771 RCTP-WSSS

Flight info

Callsign SJX771
Flight time 3h 36m
Altitude 36000
Route CHALI1A CHALI T5 PARPA A577 ANDRE/N0492F380 A577 KABAM/N0496F360 N892 MIGUG/K0917F360 N892 MAPNO/K0906F390 N892 MELAS/N0486F390 N892 MABAL MABAL2B
Aircraft A359/H-SDE2E3GHIJ3J4J5LM1ORWXY/LB1D1

Departure

Time 2026-05-05 02:53
Airport Taiwan Taoyuan International Airport (RCTP)

Arrival

Time 2026-05-05 06:29
Airport Singapore Changi Airport (WSSS)
Time Latitude Longitude Altitude Speed Heading
2026-05-05 02:37 25.08205 121.23474 107 ft 0 kts 139°
2026-05-05 02:39 25.08212 121.23467 104 ft 3 kts 139°
2026-05-05 02:39 25.08228 121.23453 104 ft 3 kts 139°
2026-05-05 02:39 25.08243 121.23438 104 ft 3 kts 139°
2026-05-05 02:39 25.08259 121.23423 105 ft 3 kts 139°
2026-05-05 02:40 25.08275 121.23408 104 ft 3 kts 139°
2026-05-05 02:40 25.08289 121.23394 105 ft 1 kts 139°
2026-05-05 02:40 25.08301 121.23384 104 ft 3 kts 185°
2026-05-05 02:40 25.08314 121.23392 104 ft 2 kts 229°
2026-05-05 02:41 25.08327 121.23409 104 ft 3 kts 229°
2026-05-05 02:41 25.08341 121.23426 104 ft 3 kts 229°
2026-05-05 02:41 25.08343 121.23429 105 ft 0 kts 229°
2026-05-05 02:43 25.08343 121.23428 104 ft 0 kts 229°
2026-05-05 02:44 25.08341 121.23427 104 ft 2 kts 229°
2026-05-05 02:44 25.08319 121.23398 104 ft 6 kts 229°
2026-05-05 02:44 25.08287 121.23358 104 ft 8 kts 229°
2026-05-05 02:44 25.08239 121.23297 105 ft 12 kts 229°
2026-05-05 02:45 25.08181 121.23222 106 ft 13 kts 229°
2026-05-05 02:45 25.08183 121.23141 105 ft 12 kts 315°
2026-05-05 02:45 25.08187 121.23063 105 ft 11 kts 237°
2026-05-05 02:45 25.08136 121.22998 103 ft 11 kts 229°
2026-05-05 02:46 25.08084 121.22932 105 ft 11 kts 229°
2026-05-05 02:46 25.08036 121.22871 107 ft 10 kts 229°
2026-05-05 02:46 25.07974 121.22792 105 ft 14 kts 229°
2026-05-05 02:46 25.07914 121.22715 104 ft 12 kts 229°
2026-05-05 02:47 25.07862 121.22650 107 ft 10 kts 229°
2026-05-05 02:47 25.07832 121.22612 105 ft 10 kts 229°
2026-05-05 02:47 25.07765 121.22526 106 ft 15 kts 229°
2026-05-05 02:47 25.07701 121.22445 107 ft 13 kts 229°
2026-05-05 02:48 25.07646 121.22376 105 ft 11 kts 229°
2026-05-05 02:48 25.07556 121.22260 105 ft 22 kts 230°
2026-05-05 02:48 25.07463 121.22141 105 ft 19 kts 229°
2026-05-05 02:48 25.07382 121.22036 106 ft 16 kts 229°
2026-05-05 02:49 25.07313 121.21951 107 ft 14 kts 228°
2026-05-05 02:49 25.07255 121.21877 105 ft 11 kts 229°
2026-05-05 02:49 25.07210 121.21818 106 ft 9 kts 229°
2026-05-05 02:49 25.07179 121.21772 105 ft 6 kts 248°
2026-05-05 02:50 25.07188 121.21730 104 ft 5 kts 307°
2026-05-05 02:50 25.07207 121.21709 104 ft 3 kts 316°
2026-05-05 02:50 25.07212 121.21704 104 ft 0 kts 317°
2026-05-05 02:51 25.07241 121.21675 105 ft 11 kts 317°
2026-05-05 02:51 25.07316 121.21637 107 ft 11 kts 20°
2026-05-05 02:51 25.07364 121.21691 105 ft 10 kts 48°
2026-05-05 02:52 25.07407 121.21746 104 ft 9 kts 50°
2026-05-05 02:52 25.07498 121.21863 106 ft 44 kts 49°
2026-05-05 02:52 25.07833 121.22288 107 ft 101 kts 49°
2026-05-05 02:52 25.08407 121.23016 104 ft 149 kts 49°
2026-05-05 02:53 25.09158 121.23962 395 ft 167 kts 50°
2026-05-05 02:53 25.09922 121.24925 1071 ft 162 kts 50°
2026-05-05 02:53 25.10659 121.25844 1658 ft 167 kts 51°
2026-05-05 02:53 25.11487 121.26871 1857 ft 187 kts 47°
2026-05-05 02:54 25.12668 121.27620 2012 ft 209 kts 14°
2026-05-05 02:54 25.14146 121.27396 2241 ft 228 kts 333°
2026-05-05 02:54 25.15477 121.26308 2407 ft 250 kts 319°
2026-05-05 02:54 25.16803 121.24971 2731 ft 263 kts 317°
2026-05-05 02:55 25.18141 121.23615 3290 ft 266 kts 320°
2026-05-05 02:55 25.19528 121.22241 3906 ft 267 kts 318°
2026-05-05 02:55 25.20908 121.20884 4631 ft 265 kts 316°
2026-05-05 02:55 25.22287 121.19538 5334 ft 263 kts 314°
2026-05-05 02:56 25.23645 121.18177 5966 ft 265 kts 310°
2026-05-05 02:56 25.24729 121.16546 6541 ft 263 kts 293°
2026-05-05 02:56 25.25208 121.14630 7305 ft 260 kts 271°
2026-05-05 02:56 25.24928 121.12662 8040 ft 263 kts 246°
2026-05-05 02:57 25.23895 121.11023 8902 ft 260 kts 230°
2026-05-05 02:57 25.22665 121.09555 9659 ft 262 kts 229°
2026-05-05 02:57 25.21402 121.08083 10258 ft 267 kts 229°
2026-05-05 02:57 25.20093 121.06546 10549 ft 283 kts 229°
2026-05-05 02:58 25.18707 121.04908 10789 ft 300 kts 229°
2026-05-05 02:58 25.17248 121.03178 11040 ft 316 kts 229°
2026-05-05 02:58 25.15716 121.01359 11294 ft 330 kts 229°
2026-05-05 02:58 25.14133 120.99480 11707 ft 338 kts 229°
2026-05-05 02:59 25.12527 120.97573 12286 ft 340 kts 229°
2026-05-05 02:59 25.10907 120.95650 12866 ft 344 kts 229°
2026-05-05 02:59 25.09273 120.93711 13413 ft 346 kts 229°
2026-05-05 02:59 25.07650 120.91786 13984 ft 348 kts 229°
2026-05-05 03:00 25.05999 120.89826 14463 ft 350 kts 229°
2026-05-05 03:00 25.04336 120.87854 14975 ft 352 kts 229°
2026-05-05 03:00 25.02662 120.85875 15546 ft 356 kts 228°
2026-05-05 03:00 25.00954 120.83861 16199 ft 360 kts 229°
2026-05-05 03:01 24.99261 120.81838 17055 ft 358 kts 229°
2026-05-05 03:01 24.97568 120.79815 17811 ft 361 kts 230°
2026-05-05 03:01 24.95835 120.77767 18439 ft 367 kts 229°
2026-05-05 03:01 24.94091 120.75708 19148 ft 367 kts 229°
2026-05-05 03:02 24.92338 120.73662 19875 ft 367 kts 229°
2026-05-05 03:02 24.90586 120.71623 20590 ft 366 kts 230°
2026-05-05 03:02 24.88834 120.69551 20961 ft 372 kts 230°
2026-05-05 03:02 24.87078 120.67459 21444 ft 372 kts 230°
2026-05-05 03:03 24.85313 120.65365 21890 ft 373 kts 230°
2026-05-05 03:03 24.83544 120.63271 22353 ft 375 kts 230°
2026-05-05 03:03 24.81758 120.61159 22787 ft 376 kts 230°
2026-05-05 03:03 24.79973 120.59053 23233 ft 377 kts 230°
2026-05-05 03:04 24.78183 120.56943 23648 ft 378 kts 230°
2026-05-05 03:04 24.76405 120.54848 23937 ft 380 kts 230°
2026-05-05 03:04 24.74591 120.52715 24254 ft 383 kts 230°
2026-05-05 03:04 24.72650 120.50681 24570 ft 388 kts 223°
2026-05-05 03:05 24.70501 120.48850 24896 ft 392 kts 221°
2026-05-05 03:05 24.68266 120.47099 25174 ft 397 kts 219°
2026-05-05 03:05 24.65955 120.45360 25342 ft 405 kts 219°
2026-05-05 03:05 24.63615 120.43627 25715 ft 406 kts 219°
2026-05-05 03:06 24.61280 120.41900 26108 ft 407 kts 219°
2026-05-05 03:06 24.58924 120.40147 26494 ft 409 kts 219°
2026-05-05 03:06 24.56574 120.38388 26931 ft 409 kts 219°
2026-05-05 03:06 24.54221 120.36616 27307 ft 411 kts 219°
2026-05-05 03:07 24.51860 120.34833 27640 ft 413 kts 219°
2026-05-05 03:07 24.49484 120.33037 27975 ft 416 kts 220°
2026-05-05 03:07 24.47123 120.31251 28296 ft 418 kts 220°
2026-05-05 03:07 24.44715 120.29433 28592 ft 421 kts 220°
2026-05-05 03:08 24.42296 120.27582 28896 ft 427 kts 220°
2026-05-05 03:08 24.39861 120.25690 29436 ft 429 kts 221°
2026-05-05 03:08 24.37421 120.23775 29824 ft 433 kts 221°
2026-05-05 03:08 24.34962 120.21850 30189 ft 434 kts 221°
2026-05-05 03:09 24.32493 120.19923 30433 ft 436 kts 221°
2026-05-05 03:09 24.30014 120.17994 30669 ft 438 kts 221°
2026-05-05 03:09 24.27523 120.16059 30909 ft 440 kts 221°
2026-05-05 03:09 24.25020 120.14119 31155 ft 441 kts 221°
2026-05-05 03:10 24.22507 120.12173 31391 ft 443 kts 221°
2026-05-05 03:10 24.19981 120.10218 31562 ft 445 kts 221°
2026-05-05 03:10 24.17445 120.08256 31728 ft 448 kts 221°
2026-05-05 03:10 24.14928 120.06309 31949 ft 449 kts 221°
2026-05-05 03:11 24.12371 120.04340 32241 ft 449 kts 221°
2026-05-05 03:11 24.09823 120.02374 32584 ft 447 kts 221°
2026-05-05 03:11 24.07279 120.00428 32910 ft 447 kts 219°
2026-05-05 03:11 24.04588 119.98693 33210 ft 452 kts 213°
2026-05-05 03:12 24.01682 119.97327 33488 ft 458 kts 206°
2026-05-05 03:12 23.98576 119.96416 33772 ft 467 kts 198°
2026-05-05 03:12 23.95317 119.96031 34033 ft 475 kts 189°
2026-05-05 03:12 23.91985 119.96172 34317 ft 481 kts 184°
2026-05-05 03:13 23.88655 119.96522 34496 ft 484 kts 182°
2026-05-05 03:13 23.85302 119.96959 34671 ft 485 kts 181°
2026-05-05 03:13 23.81949 119.97425 34859 ft 486 kts 181°
2026-05-05 03:13 23.78594 119.97894 35042 ft 486 kts 181°
2026-05-05 03:14 23.75285 119.98345 35227 ft 486 kts 181°
2026-05-05 03:14 23.71930 119.98789 35399 ft 485 kts 181°
2026-05-05 03:14 23.68575 119.99223 35560 ft 486 kts 181°
2026-05-05 03:15 23.61827 120.00077 35771 ft 489 kts 181°
2026-05-05 03:15 23.58447 120.00504 35960 ft 488 kts 181°
2026-05-05 03:15 23.55065 120.00930 36026 ft 491 kts 181°
2026-05-05 03:16 23.48247 120.01787 36027 ft 494 kts 181°
2026-05-05 03:16 23.41413 120.02652 36029 ft 494 kts 181°
2026-05-05 03:17 23.34623 120.03510 36026 ft 494 kts 181°
2026-05-05 03:17 23.27807 120.04370 36025 ft 494 kts 181°
2026-05-05 03:18 23.20974 120.05230 36022 ft 494 kts 181°
2026-05-05 03:18 23.14183 120.06017 36036 ft 489 kts 185°
2026-05-05 03:19 23.04023 120.05987 36041 ft 486 kts 188°
2026-05-05 03:19 22.97254 120.05815 36042 ft 486 kts 188°
2026-05-05 03:20 22.90493 120.05642 36041 ft 486 kts 188°
2026-05-05 03:20 22.83722 120.05480 36008 ft 486 kts 188°
2026-05-05 03:21 22.76947 120.05322 36030 ft 487 kts 188°
2026-05-05 03:21 22.70148 120.05167 36025 ft 488 kts 188°
2026-05-05 03:22 22.63400 120.05014 36007 ft 488 kts 188°
2026-05-05 03:22 22.56610 120.04858 36006 ft 488 kts 188°
2026-05-05 03:23 22.49826 120.04702 36007 ft 488 kts 187°
2026-05-05 03:23 22.43017 120.04547 36007 ft 489 kts 187°
2026-05-05 03:24 22.36238 120.04392 36006 ft 489 kts 187°
2026-05-05 03:24 22.29437 120.04237 36006 ft 488 kts 187°
2026-05-05 03:25 22.22635 120.04082 36007 ft 488 kts 187°
2026-05-05 03:25 22.15875 120.03928 36001 ft 488 kts 187°
2026-05-05 03:26 22.09032 120.03773 36001 ft 488 kts 187°
2026-05-05 03:26 22.02311 120.03433 36005 ft 484 kts 193°
2026-05-05 03:27 21.95647 120.02520 35997 ft 483 kts 194°
2026-05-05 03:27 21.88992 120.01504 35996 ft 483 kts 194°
2026-05-05 03:28 21.82322 120.00475 36002 ft 483 kts 194°
2026-05-05 03:28 21.75669 119.99461 36001 ft 483 kts 194°
2026-05-05 03:29 21.69009 119.98456 36001 ft 484 kts 193°
2026-05-05 03:29 21.62332 119.97438 35996 ft 485 kts 193°
2026-05-05 03:30 21.55700 119.96427 35997 ft 485 kts 193°
2026-05-05 03:30 21.49018 119.95412 35992 ft 485 kts 193°
2026-05-05 03:31 21.42327 119.94398 35988 ft 485 kts 193°
2026-05-05 03:31 21.35646 119.93386 35997 ft 485 kts 193°
2026-05-05 03:32 21.28948 119.92372 35991 ft 486 kts 193°
2026-05-05 03:32 21.22248 119.91359 35991 ft 486 kts 193°
2026-05-05 03:33 21.15603 119.90355 35971 ft 485 kts 193°
2026-05-05 03:33 21.08913 119.89346 35982 ft 485 kts 193°
2026-05-05 03:34 21.03457 119.88115 35982 ft 478 kts 203°
2026-05-05 03:34 20.99430 119.86227 35980 ft 469 kts 214°
2026-05-05 03:34 20.97616 119.84986 35980 ft 465 kts 220°
2026-05-05 03:35 20.92828 119.80406 35981 ft 461 kts 228°
2026-05-05 03:35 20.88320 119.75517 35971 ft 461 kts 229°
2026-05-05 03:36 20.83834 119.70597 35979 ft 462 kts 229°
2026-05-05 03:36 20.79320 119.65702 35975 ft 462 kts 229°
2026-05-05 03:37 20.74783 119.60818 35972 ft 462 kts 228°
2026-05-05 03:37 20.70273 119.55974 35972 ft 462 kts 228°
2026-05-05 03:38 20.65732 119.51101 35955 ft 462 kts 228°
2026-05-05 03:38 20.61194 119.46231 35968 ft 463 kts 228°
2026-05-05 03:39 20.56640 119.41349 35971 ft 464 kts 228°
2026-05-05 03:39 20.52079 119.36466 35972 ft 464 kts 228°
2026-05-05 03:40 20.47554 119.31624 35967 ft 464 kts 228°
2026-05-05 03:40 20.42998 119.26753 35967 ft 464 kts 228°
2026-05-05 03:41 20.38434 119.21878 35958 ft 465 kts 228°
2026-05-05 03:41 20.33862 119.16999 35977 ft 465 kts 228°
2026-05-05 03:42 20.29282 119.12116 35962 ft 465 kts 228°
2026-05-05 03:42 20.24705 119.07241 35963 ft 465 kts 228°
2026-05-05 03:43 20.20125 119.02367 35955 ft 465 kts 228°
2026-05-05 03:43 20.15579 118.97532 35960 ft 465 kts 228°
2026-05-05 03:44 20.10988 118.92654 35956 ft 467 kts 228°
2026-05-05 03:44 20.06385 118.87768 35956 ft 467 kts 228°
2026-05-05 03:45 20.01775 118.82879 35953 ft 467 kts 228°
2026-05-05 03:45 19.97166 118.77996 35957 ft 467 kts 228°
2026-05-05 03:46 19.92559 118.73118 35955 ft 467 kts 228°
2026-05-05 03:46 19.87948 118.68240 35949 ft 468 kts 228°
2026-05-05 03:47 19.83324 118.63353 35952 ft 469 kts 228°
2026-05-05 03:47 19.78722 118.58494 35947 ft 469 kts 228°
2026-05-05 03:48 19.74091 118.53608 35953 ft 469 kts 228°
2026-05-05 03:48 19.69461 118.48727 35950 ft 469 kts 228°
2026-05-05 03:49 19.64830 118.43850 35948 ft 469 kts 228°
2026-05-05 03:49 19.60192 118.38970 35944 ft 469 kts 228°
2026-05-05 03:50 19.55560 118.34100 35947 ft 469 kts 228°
2026-05-05 03:50 19.50923 118.29228 35950 ft 469 kts 228°
2026-05-05 03:51 19.46308 118.24385 35947 ft 469 kts 228°
2026-05-05 03:51 19.41656 118.19506 35937 ft 470 kts 228°
2026-05-05 03:52 19.37011 118.14639 35940 ft 470 kts 228°
2026-05-05 03:52 19.32357 118.09768 35945 ft 470 kts 228°
2026-05-05 03:53 19.27703 118.04901 35944 ft 470 kts 228°
2026-05-05 03:53 19.23077 118.00064 35943 ft 470 kts 228°
2026-05-05 03:54 19.18422 117.95202 35939 ft 470 kts 228°
2026-05-05 03:54 19.13765 117.90343 35934 ft 470 kts 228°
2026-05-05 03:55 19.09107 117.85487 35939 ft 470 kts 228°
2026-05-05 03:55 19.04445 117.80631 35938 ft 470 kts 228°
2026-05-05 03:56 18.99782 117.75776 35938 ft 470 kts 228°
2026-05-05 03:56 18.95146 117.70956 35939 ft 470 kts 228°
2026-05-05 03:57 18.90478 117.66107 35924 ft 471 kts 228°
2026-05-05 03:57 18.85799 117.61250 35936 ft 471 kts 227°
2026-05-05 03:58 18.81121 117.56398 35939 ft 472 kts 227°
2026-05-05 03:58 18.76441 117.51548 35938 ft 472 kts 227°
2026-05-05 03:59 18.71756 117.46696 35936 ft 472 kts 227°
2026-05-05 03:59 18.67068 117.41847 35936 ft 471 kts 227°
2026-05-05 04:00 18.62389 117.37009 35935 ft 471 kts 227°
2026-05-05 04:00 18.57700 117.32166 35935 ft 471 kts 227°
2026-05-05 04:01 18.53018 117.27333 35934 ft 471 kts 227°
2026-05-05 04:01 18.48357 117.22526 35933 ft 472 kts 227°
2026-05-05 04:02 18.43675 117.17702 35934 ft 472 kts 227°
2026-05-05 04:02 18.38989 117.12877 35934 ft 471 kts 227°
2026-05-05 04:03 18.34303 117.08055 35930 ft 472 kts 227°
2026-05-05 04:03 18.29597 117.03218 35930 ft 473 kts 227°
2026-05-05 04:04 18.24890 116.98382 35930 ft 473 kts 227°
2026-05-05 04:04 18.20180 116.93549 35931 ft 473 kts 227°
2026-05-05 04:05 18.15470 116.88719 35925 ft 473 kts 227°
2026-05-05 04:05 18.10790 116.83923 35918 ft 472 kts 227°
2026-05-05 04:06 18.06071 116.79091 35925 ft 474 kts 227°
2026-05-05 04:06 18.01345 116.74256 35930 ft 474 kts 227°
2026-05-05 04:07 17.96617 116.69423 35927 ft 474 kts 227°
2026-05-05 04:07 17.91891 116.64596 35928 ft 474 kts 227°
2026-05-05 04:08 17.87156 116.59763 35928 ft 474 kts 227°
2026-05-05 04:08 17.82430 116.54943 35927 ft 475 kts 227°
2026-05-05 04:09 17.77721 116.50144 35927 ft 475 kts 227°
2026-05-05 04:09 17.72979 116.45315 35926 ft 475 kts 227°
2026-05-05 04:10 17.68235 116.40489 35927 ft 475 kts 227°
2026-05-05 04:10 17.63488 116.35664 35927 ft 475 kts 227°
2026-05-05 04:11 17.58739 116.30839 35925 ft 475 kts 227°
2026-05-05 04:11 17.53982 116.26009 35925 ft 477 kts 226°
2026-05-05 04:12 17.49218 116.21179 35922 ft 476 kts 226°
2026-05-05 04:12 17.44495 116.16393 35921 ft 476 kts 226°
2026-05-05 04:13 17.39729 116.11567 35925 ft 476 kts 226°
2026-05-05 04:13 17.34960 116.06740 35925 ft 476 kts 226°
2026-05-05 04:14 17.30200 116.01927 35911 ft 476 kts 226°
2026-05-05 04:14 17.25427 115.97104 35918 ft 478 kts 226°
2026-05-05 04:15 17.20641 115.92272 35920 ft 478 kts 226°
2026-05-05 04:15 17.15861 115.87450 35922 ft 478 kts 226°
2026-05-05 04:16 17.11072 115.82623 35919 ft 478 kts 226°
2026-05-05 04:16 17.06305 115.77821 35919 ft 478 kts 226°
2026-05-05 04:17 17.01519 115.73003 35922 ft 478 kts 226°
2026-05-05 04:17 16.96728 115.68184 35919 ft 478 kts 226°
2026-05-05 04:18 16.91933 115.63365 35922 ft 478 kts 226°
2026-05-05 04:18 16.87137 115.58548 35919 ft 478 kts 226°
2026-05-05 04:19 16.82331 115.53724 35916 ft 479 kts 226°
2026-05-05 04:19 16.77529 115.48908 35922 ft 479 kts 226°
2026-05-05 04:20 16.73534 115.44905 35914 ft 479 kts 226°
2026-05-05 04:20 16.67935 115.39298 35920 ft 480 kts 226°
2026-05-05 04:21 16.63918 115.35278 35919 ft 480 kts 226°
2026-05-05 04:21 16.59093 115.30453 35915 ft 480 kts 226°
2026-05-05 04:22 16.54274 115.25638 35918 ft 480 kts 226°
2026-05-05 04:22 16.49452 115.20823 35916 ft 480 kts 226°
2026-05-05 04:23 16.44631 115.16012 35915 ft 481 kts 226°
2026-05-05 04:23 16.39796 115.11190 35920 ft 481 kts 226°
2026-05-05 04:24 16.34961 115.06373 35916 ft 481 kts 226°
2026-05-05 04:25 16.27694 114.99139 35915 ft 481 kts 226°
2026-05-05 04:25 16.22883 114.94354 35917 ft 481 kts 226°
2026-05-05 04:26 16.18034 114.89535 35908 ft 481 kts 226°
2026-05-05 04:26 16.13191 114.84724 35913 ft 482 kts 226°
2026-05-05 04:27 16.08340 114.79910 35912 ft 482 kts 226°
2026-05-05 04:27 16.03484 114.75094 35916 ft 482 kts 226°
2026-05-05 04:28 15.98626 114.70279 35911 ft 482 kts 226°
2026-05-05 04:28 15.93801 114.65500 35910 ft 482 kts 226°
2026-05-05 04:29 15.88943 114.60693 35906 ft 482 kts 226°
2026-05-05 04:29 15.84088 114.55891 35910 ft 482 kts 226°
2026-05-05 04:30 15.79214 114.51074 35915 ft 483 kts 226°
2026-05-05 04:30 15.74343 114.46264 35917 ft 483 kts 226°
2026-05-05 04:31 15.69509 114.41493 35914 ft 483 kts 226°
2026-05-05 04:31 15.64641 114.36692 35921 ft 482 kts 226°
2026-05-05 04:32 15.59777 114.31898 35908 ft 482 kts 226°
2026-05-05 04:32 15.54905 114.27100 35910 ft 482 kts 226°
2026-05-05 04:33 15.50035 114.22308 35907 ft 482 kts 226°
2026-05-05 04:33 15.45165 114.17517 35905 ft 482 kts 226°
2026-05-05 04:34 15.40298 114.12734 35922 ft 482 kts 226°
2026-05-05 04:34 15.35458 114.07980 35921 ft 482 kts 226°
2026-05-05 04:35 15.30584 114.03196 35912 ft 482 kts 226°
2026-05-05 04:35 15.25468 113.98672 35910 ft 485 kts 219°
2026-05-05 04:36 15.20010 113.94533 35902 ft 486 kts 218°
2026-05-05 04:36 15.14506 113.90462 35913 ft 486 kts 218°
2026-05-05 04:37 15.09000 113.86400 35911 ft 486 kts 218°
2026-05-05 04:37 15.03490 113.82326 35912 ft 486 kts 218°
2026-05-05 04:38 14.97988 113.78254 35909 ft 486 kts 218°
2026-05-05 04:38 14.92483 113.74181 35908 ft 487 kts 218°
2026-05-05 04:39 14.87007 113.70132 35909 ft 487 kts 218°
2026-05-05 04:39 14.81492 113.66057 35908 ft 487 kts 218°
2026-05-05 04:40 14.75974 113.61983 35906 ft 487 kts 218°
2026-05-05 04:40 14.70453 113.57909 35901 ft 487 kts 218°
2026-05-05 04:41 14.64929 113.53835 35904 ft 488 kts 218°
2026-05-05 04:41 14.59405 113.49765 35906 ft 488 kts 218°
2026-05-05 04:42 14.53873 113.45691 35907 ft 488 kts 218°
2026-05-05 04:42 14.48341 113.41621 35906 ft 488 kts 218°
2026-05-05 04:43 14.42860 113.37575 35906 ft 488 kts 218°
2026-05-05 04:43 14.37333 113.33485 35905 ft 490 kts 218°
2026-05-05 04:44 14.31779 113.29382 35903 ft 491 kts 218°
2026-05-05 04:44 14.26228 113.25287 35903 ft 491 kts 218°
2026-05-05 04:45 14.20671 113.21192 35906 ft 491 kts 218°
2026-05-05 04:45 14.15110 113.17096 35906 ft 491 kts 218°
2026-05-05 04:46 14.09550 113.13002 35905 ft 491 kts 218°
2026-05-05 04:46 14.03995 113.08915 35904 ft 491 kts 218°
2026-05-05 04:47 13.98427 113.04821 35903 ft 491 kts 218°
2026-05-05 04:47 13.92894 113.00768 35903 ft 491 kts 218°
2026-05-05 04:48 13.87326 112.96685 35904 ft 491 kts 218°
2026-05-05 04:48 13.81757 112.92605 35903 ft 491 kts 218°
2026-05-05 04:49 13.76185 112.88526 35903 ft 493 kts 218°
2026-05-05 04:49 13.70584 112.84428 35904 ft 494 kts 218°
2026-05-05 04:50 13.64976 112.80329 35904 ft 494 kts 218°
2026-05-05 04:50 13.59369 112.76233 35903 ft 494 kts 218°
2026-05-05 04:51 13.53763 112.72140 35901 ft 495 kts 218°
2026-05-05 04:51 13.48151 112.68044 35897 ft 494 kts 217°
2026-05-05 04:52 13.42540 112.63952 35903 ft 494 kts 217°
2026-05-05 04:52 13.36924 112.59859 35899 ft 495 kts 217°
2026-05-05 04:53 13.31303 112.55765 35901 ft 495 kts 217°
2026-05-05 04:53 13.25722 112.51701 35901 ft 495 kts 217°
2026-05-05 04:54 13.20104 112.47614 35898 ft 495 kts 217°
2026-05-05 04:54 13.14488 112.43529 35894 ft 495 kts 217°
2026-05-05 04:55 13.08873 112.39449 35900 ft 495 kts 217°
2026-05-05 04:55 13.03252 112.35366 35910 ft 495 kts 217°
2026-05-05 04:56 12.97632 112.31286 35892 ft 495 kts 217°
2026-05-05 04:56 12.92008 112.27206 35892 ft 495 kts 217°
2026-05-05 04:57 12.86424 112.23156 35910 ft 495 kts 217°
2026-05-05 04:57 12.80805 112.19083 35909 ft 495 kts 217°
2026-05-05 04:58 12.75183 112.15012 35906 ft 495 kts 217°
2026-05-05 04:58 12.69550 112.10934 35906 ft 495 kts 217°
2026-05-05 04:59 12.63917 112.06858 35892 ft 496 kts 217°
2026-05-05 04:59 12.58285 112.02786 35891 ft 496 kts 217°
2026-05-05 05:00 12.52652 111.98714 35886 ft 496 kts 217°
2026-05-05 05:00 12.47012 111.94641 35900 ft 496 kts 217°
2026-05-05 05:01 12.41400 111.90590 35886 ft 496 kts 217°
2026-05-05 05:01 12.35752 111.86515 35901 ft 496 kts 217°
2026-05-05 05:02 12.30117 111.82428 35890 ft 496 kts 217°
2026-05-05 05:02 12.24490 111.78330 35881 ft 496 kts 217°
2026-05-05 05:03 12.18864 111.74238 35883 ft 496 kts 217°
2026-05-05 05:03 12.13234 111.70150 35897 ft 496 kts 217°
2026-05-05 05:04 12.07598 111.66062 35896 ft 497 kts 217°
2026-05-05 05:04 12.01965 111.61977 35894 ft 496 kts 217°
2026-05-05 05:05 11.96363 111.57918 35891 ft 496 kts 217°
2026-05-05 05:05 11.90723 111.53832 35891 ft 496 kts 217°
2026-05-05 05:06 11.85082 111.49748 35892 ft 498 kts 217°
2026-05-05 05:07 11.74098 111.41803 35891 ft 499 kts 217°
2026-05-05 05:07 11.68431 111.37706 35891 ft 499 kts 217°
2026-05-05 05:08 11.62768 111.33615 35895 ft 498 kts 217°
2026-05-05 05:08 11.57110 111.29529 35890 ft 498 kts 217°
2026-05-05 05:09 11.51447 111.25440 35890 ft 498 kts 216°
2026-05-05 05:09 11.45814 111.21377 35889 ft 498 kts 216°
2026-05-05 05:10 11.18800 111.01994 35886 ft 501 kts 215°
2026-05-05 05:10 10.95867 110.85778 35887 ft 502 kts 215°
2026-05-05 05:11 10.72942 110.69557 35886 ft 501 kts 215°
2026-05-05 05:11 10.49952 110.53323 35886 ft 506 kts 215°
2026-05-05 05:12 10.26777 110.36988 35888 ft 508 kts 214°
2026-05-05 05:12 10.03706 110.20694 35880 ft 509 kts 214°
2026-05-05 05:13 9.80406 110.04249 35881 ft 512 kts 215°
2026-05-05 05:13 9.56981 109.87745 35879 ft 513 kts 214°
2026-05-05 05:14 9.33544 109.71275 35880 ft 513 kts 214°
2026-05-05 05:14 9.10029 109.54782 35877 ft 513 kts 214°
2026-05-05 05:15 8.86563 109.38350 35875 ft 513 kts 214°
2026-05-05 05:15 8.63058 109.21990 35875 ft 512 kts 214°
2026-05-05 05:16 8.41030 109.06696 35870 ft 513 kts 214°
2026-05-05 05:16 8.35184 109.02640 35871 ft 513 kts 214°
2026-05-05 05:17 8.29305 108.98564 35871 ft 512 kts 214°
2026-05-05 05:17 8.23419 108.94484 35871 ft 513 kts 214°
2026-05-05 05:18 8.17536 108.90407 35871 ft 512 kts 214°
2026-05-05 05:18 8.11663 108.86339 35870 ft 512 kts 214°
2026-05-05 05:19 8.05784 108.82269 35871 ft 512 kts 214°
2026-05-05 05:19 7.99911 108.78204 35870 ft 512 kts 214°
2026-05-05 05:20 7.94081 108.74170 35870 ft 511 kts 214°
2026-05-05 05:20 7.88201 108.70103 35867 ft 511 kts 214°
2026-05-05 05:21 7.82333 108.66046 35868 ft 511 kts 214°
2026-05-05 05:21 7.76467 108.61992 35864 ft 511 kts 214°
2026-05-05 05:22 7.70597 108.57936 35864 ft 511 kts 214°
2026-05-05 05:22 7.64730 108.53883 35865 ft 511 kts 214°
2026-05-05 05:23 7.58868 108.49835 35865 ft 511 kts 214°
2026-05-05 05:23 7.52993 108.45780 35864 ft 511 kts 214°
2026-05-05 05:24 7.47163 108.41757 35863 ft 511 kts 214°
2026-05-05 05:24 7.42249 108.38368 35864 ft 511 kts 214°
2026-05-05 05:25 7.36364 108.34309 35865 ft 512 kts 214°
2026-05-05 05:25 7.30525 108.30283 35864 ft 512 kts 214°
2026-05-05 05:26 7.24651 108.26236 35863 ft 511 kts 214°
2026-05-05 05:26 7.18776 108.22188 35864 ft 511 kts 214°
2026-05-05 05:27 7.12904 108.18144 35865 ft 512 kts 214°
2026-05-05 05:27 7.04098 108.12066 35865 ft 512 kts 214°
2026-05-05 05:28 6.98248 108.07977 35864 ft 511 kts 214°
2026-05-05 05:28 6.92438 108.03916 35865 ft 511 kts 214°
2026-05-05 05:29 6.86591 107.99837 35866 ft 511 kts 214°
2026-05-05 05:29 6.80750 107.95768 35864 ft 510 kts 214°
2026-05-05 05:30 6.74909 107.91702 35865 ft 510 kts 214°
2026-05-05 05:30 6.69075 107.87642 35865 ft 510 kts 214°
2026-05-05 05:31 6.63264 107.83598 35862 ft 510 kts 214°
2026-05-05 05:31 6.57426 107.79537 35861 ft 510 kts 214°
2026-05-05 05:32 6.51591 107.75479 35865 ft 510 kts 214°
2026-05-05 05:32 6.45744 107.71414 35863 ft 510 kts 214°
2026-05-05 05:33 6.39914 107.67362 35862 ft 510 kts 214°
2026-05-05 05:33 6.34080 107.63308 35861 ft 509 kts 214°
2026-05-05 05:34 6.28234 107.59247 35862 ft 509 kts 214°
2026-05-05 05:34 6.22405 107.55199 35862 ft 510 kts 214°
2026-05-05 05:35 6.16606 107.51173 35864 ft 510 kts 214°
2026-05-05 05:35 6.10778 107.47127 35864 ft 509 kts 214°
2026-05-05 05:36 6.04945 107.43080 35867 ft 509 kts 214°
2026-05-05 05:36 5.99118 107.39037 35849 ft 509 kts 214°
2026-05-05 05:37 5.93293 107.34997 35865 ft 508 kts 214°
2026-05-05 05:37 5.87467 107.30958 35848 ft 508 kts 214°
2026-05-05 05:38 5.81685 107.26950 35847 ft 508 kts 214°
2026-05-05 05:38 5.75865 107.22916 35867 ft 508 kts 214°
2026-05-05 05:39 5.70055 107.18891 35866 ft 508 kts 214°
2026-05-05 05:39 5.64228 107.14855 35852 ft 508 kts 214°
2026-05-05 05:40 5.58401 107.10820 35855 ft 509 kts 214°
2026-05-05 05:40 5.52585 107.06793 35850 ft 508 kts 214°
2026-05-05 05:41 5.46798 107.02787 35844 ft 508 kts 214°
2026-05-05 05:41 5.40986 106.98766 35862 ft 507 kts 214°
2026-05-05 05:42 5.35177 106.94747 35865 ft 507 kts 214°
2026-05-05 05:42 5.29349 106.90748 35866 ft 507 kts 214°
2026-05-05 05:43 5.23547 106.86725 35850 ft 507 kts 214°
2026-05-05 05:43 5.17736 106.82692 35849 ft 507 kts 214°
2026-05-05 05:44 5.11945 106.78683 35865 ft 507 kts 214°
2026-05-05 05:44 5.06171 106.74693 35867 ft 507 kts 214°
2026-05-05 05:45 5.00351 106.70673 35867 ft 507 kts 214°
2026-05-05 05:45 4.94539 106.66659 35868 ft 506 kts 214°
2026-05-05 05:46 4.88736 106.62651 35869 ft 506 kts 214°
2026-05-05 05:46 4.82965 106.58667 35869 ft 506 kts 213°
2026-05-05 05:47 4.77164 106.54663 35870 ft 506 kts 213°
2026-05-05 05:47 4.71364 106.50660 35867 ft 506 kts 213°
2026-05-05 05:48 4.65562 106.46656 35866 ft 506 kts 213°
2026-05-05 05:48 4.59760 106.42655 35866 ft 506 kts 213°
2026-05-05 05:49 4.53963 106.38656 35867 ft 506 kts 213°
2026-05-05 05:49 4.48163 106.34656 35867 ft 506 kts 213°
2026-05-05 05:50 4.42368 106.30661 35849 ft 505 kts 213°
2026-05-05 05:50 4.36607 106.26690 35850 ft 505 kts 213°
2026-05-05 05:51 4.30844 106.22660 35866 ft 506 kts 217°
2026-05-05 05:51 4.25833 106.17710 35866 ft 507 kts 228°
2026-05-05 05:52 4.21320 106.12263 35866 ft 508 kts 230°
2026-05-05 05:52 4.16914 106.06735 35867 ft 508 kts 230°
2026-05-05 05:53 4.12490 106.01220 35867 ft 508 kts 230°
2026-05-05 05:53 4.08038 105.95721 35867 ft 507 kts 230°
2026-05-05 05:54 4.03588 105.90245 35866 ft 507 kts 230°
2026-05-05 05:54 3.99163 105.84800 35850 ft 507 kts 230°
2026-05-05 05:55 3.94708 105.79318 35849 ft 507 kts 230°
2026-05-05 05:55 3.90253 105.73835 35850 ft 507 kts 230°
2026-05-05 05:56 3.86580 105.69316 35868 ft 507 kts 230°
2026-05-05 05:56 3.82403 105.64177 35851 ft 507 kts 230°
2026-05-05 05:57 3.77945 105.58693 35852 ft 507 kts 230°
2026-05-05 05:57 3.73494 105.53221 35848 ft 507 kts 230°
2026-05-05 05:58 3.69053 105.47745 35852 ft 507 kts 230°
2026-05-05 05:58 3.64616 105.42264 35849 ft 506 kts 230°
2026-05-05 05:59 3.60179 105.36788 35849 ft 506 kts 230°
2026-05-05 05:59 3.55742 105.31313 35850 ft 506 kts 230°
2026-05-05 06:00 3.51346 105.25892 35869 ft 506 kts 230°
2026-05-05 06:00 3.46899 105.20409 35869 ft 506 kts 230°
2026-05-05 06:01 3.42459 105.14939 35867 ft 506 kts 230°
2026-05-05 06:01 3.38022 105.09467 35851 ft 506 kts 230°
2026-05-05 06:02 3.33622 105.04043 35849 ft 506 kts 230°
2026-05-05 06:02 3.29191 104.98582 35826 ft 498 kts 230°
2026-05-05 06:03 3.27037 104.95927 35607 ft 488 kts 230°
2026-05-05 06:03 3.24890 104.93283 34810 ft 492 kts 230°
2026-05-05 06:03 3.22724 104.90615 34008 ft 496 kts 230°
2026-05-05 06:03 3.20541 104.87926 33171 ft 499 kts 230°
2026-05-05 06:04 3.18344 104.85220 32476 ft 499 kts 230°
2026-05-05 06:04 3.16166 104.82537 31963 ft 495 kts 230°
2026-05-05 06:04 3.14030 104.79905 31416 ft 491 kts 230°
2026-05-05 06:04 3.11877 104.77255 30886 ft 488 kts 230°
2026-05-05 06:05 3.09742 104.74626 30354 ft 486 kts 230°
2026-05-05 06:05 3.07616 104.72008 29786 ft 483 kts 230°
2026-05-05 06:05 3.05502 104.69406 29211 ft 480 kts 230°
2026-05-05 06:05 3.03393 104.66811 28681 ft 476 kts 230°
2026-05-05 06:06 3.01199 104.64350 28150 ft 471 kts 225°
2026-05-05 06:06 2.98972 104.62024 27639 ft 467 kts 225°
2026-05-05 06:06 2.96731 104.59679 27134 ft 463 kts 225°
2026-05-05 06:06 2.94523 104.57351 26627 ft 460 kts 225°
2026-05-05 06:07 2.92337 104.55032 26125 ft 457 kts 225°
2026-05-05 06:07 2.90161 104.52717 25631 ft 454 kts 226°
2026-05-05 06:07 2.88007 104.50420 25108 ft 451 kts 226°
2026-05-05 06:07 2.85864 104.48132 24628 ft 449 kts 226°
2026-05-05 06:08 2.83734 104.45858 24131 ft 447 kts 226°
2026-05-05 06:08 2.81606 104.43586 23623 ft 446 kts 226°
2026-05-05 06:08 2.79514 104.41351 23073 ft 444 kts 226°
2026-05-05 06:08 2.77412 104.39104 22543 ft 441 kts 226°
2026-05-05 06:09 2.75324 104.36874 22037 ft 438 kts 226°
2026-05-05 06:09 2.73246 104.34654 21528 ft 435 kts 226°
2026-05-05 06:09 2.71186 104.32452 21028 ft 432 kts 226°
2026-05-05 06:09 2.69140 104.30268 20515 ft 429 kts 226°
2026-05-05 06:10 2.67107 104.28095 20009 ft 426 kts 226°
2026-05-05 06:10 2.65089 104.25939 19498 ft 423 kts 226°
2026-05-05 06:10 2.63078 104.23792 19006 ft 420 kts 226°
2026-05-05 06:10 2.61092 104.21671 18658 ft 413 kts 226°
2026-05-05 06:11 2.59164 104.19610 18531 ft 399 kts 226°
2026-05-05 06:11 2.57300 104.17618 18373 ft 387 kts 226°
2026-05-05 06:11 2.55487 104.15682 18211 ft 376 kts 225°
2026-05-05 06:11 2.53724 104.13800 18025 ft 365 kts 225°
2026-05-05 06:12 2.51972 104.12014 17776 ft 355 kts 219°
2026-05-05 06:12 2.49912 104.10801 17425 ft 345 kts 195°
2026-05-05 06:12 2.47570 104.10453 17021 ft 339 kts 179°
2026-05-05 06:12 2.45218 104.10441 16579 ft 336 kts 178°
2026-05-05 06:13 2.42891 104.10463 16206 ft 333 kts 178°
2026-05-05 06:13 2.40592 104.10479 15879 ft 328 kts 178°
2026-05-05 06:13 2.39057 104.10486 15660 ft 325 kts 178°
2026-05-05 06:13 2.36078 104.10493 15196 ft 321 kts 178°
2026-05-05 06:14 2.34603 104.10496 14999 ft 319 kts 178°
2026-05-05 06:14 2.32385 104.10498 14661 ft 317 kts 178°
2026-05-05 06:14 2.30184 104.10499 14328 ft 315 kts 178°
2026-05-05 06:14 2.27996 104.10501 14005 ft 314 kts 178°
2026-05-05 06:15 2.25818 104.10501 13674 ft 312 kts 178°
2026-05-05 06:15 2.23657 104.10501 13322 ft 310 kts 178°
2026-05-05 06:15 2.21508 104.10501 12995 ft 307 kts 179°
2026-05-05 06:15 2.19385 104.10501 12684 ft 304 kts 179°
2026-05-05 06:16 2.17281 104.10501 12363 ft 301 kts 179°
2026-05-05 06:16 2.15198 104.10501 12045 ft 298 kts 179°
2026-05-05 06:16 2.13134 104.10501 11741 ft 295 kts 179°
2026-05-05 06:16 2.11105 104.10501 11543 ft 288 kts 179°
2026-05-05 06:17 2.09114 104.10501 11277 ft 285 kts 179°
2026-05-05 06:17 2.07162 104.10501 11029 ft 280 kts 179°
2026-05-05 06:17 2.05247 104.10501 10882 ft 270 kts 179°
2026-05-05 06:17 2.03406 104.10500 10770 ft 259 kts 179°
2026-05-05 06:18 2.01630 104.10500 10608 ft 253 kts 179°
2026-05-05 06:18 1.99881 104.10501 10352 ft 250 kts 179°
2026-05-05 06:18 1.98143 104.10501 10083 ft 249 kts 179°
2026-05-05 06:18 1.96409 104.10508 9799 ft 252 kts 179°
2026-05-05 06:19 1.94633 104.10518 9505 ft 259 kts 179°
2026-05-05 06:19 1.92829 104.10527 9207 ft 259 kts 180°
2026-05-05 06:19 1.91030 104.10536 8930 ft 258 kts 180°
2026-05-05 06:19 1.89237 104.10544 8663 ft 257 kts 180°
2026-05-05 06:20 1.87450 104.10552 8384 ft 256 kts 180°
2026-05-05 06:20 1.85672 104.10560 8105 ft 255 kts 180°
2026-05-05 06:20 1.83897 104.10568 7830 ft 254 kts 180°
2026-05-05 06:20 1.82128 104.10576 7564 ft 253 kts 180°
2026-05-05 06:21 1.80388 104.10584 7300 ft 252 kts 180°
2026-05-05 06:21 1.78635 104.10592 7032 ft 251 kts 180°
2026-05-05 06:21 1.76890 104.10600 6762 ft 251 kts 180°
2026-05-05 06:21 1.75151 104.10608 6496 ft 250 kts 180°
2026-05-05 06:22 1.73414 104.10615 6384 ft 250 kts 180°
2026-05-05 06:22 1.71678 104.10623 6197 ft 248 kts 180°
2026-05-05 06:22 1.69947 104.10631 5806 ft 249 kts 180°
2026-05-05 06:22 1.68244 104.10639 5647 ft 240 kts 180°
2026-05-05 06:23 1.66612 104.10646 5508 ft 229 kts 180°
2026-05-05 06:23 1.65042 104.10653 5331 ft 223 kts 180°
2026-05-05 06:23 1.63497 104.10660 5080 ft 221 kts 180°
2026-05-05 06:23 1.61965 104.10619 4825 ft 220 kts 189°
2026-05-05 06:24 1.60534 104.10122 4586 ft 217 kts 208°
2026-05-05 06:24 1.59206 104.09395 4341 ft 217 kts 210°
2026-05-05 06:24 1.57901 104.08652 4128 ft 216 kts 211°
2026-05-05 06:24 1.56597 104.07913 3933 ft 215 kts 210°
2026-05-05 06:25 1.55290 104.07177 3643 ft 217 kts 210°
2026-05-05 06:25 1.53954 104.06429 3185 ft 224 kts 210°
2026-05-05 06:25 1.52571 104.05657 2722 ft 229 kts 210°
2026-05-05 06:25 1.51210 104.04866 2508 ft 222 kts 215°
2026-05-05 06:26 1.49939 104.04119 2466 ft 208 kts 203°
2026-05-05 06:26 1.48627 104.03596 2322 ft 199 kts 204°
2026-05-05 06:26 1.47393 104.03030 2069 ft 193 kts 203°
2026-05-05 06:26 1.46144 104.02505 1805 ft 199 kts 202°
2026-05-05 06:27 1.44837 104.01944 1557 ft 208 kts 205°
2026-05-05 06:27 1.42323 104.00884 1012 ft 181 kts 203°
2026-05-05 06:27 1.41207 104.00412 794 ft 168 kts 202°
2026-05-05 06:28 1.40155 103.99973 529 ft 161 kts 200°
2026-05-05 06:28 1.39169 103.99564 381 ft 147 kts 200°
2026-05-05 06:28 1.38240 103.99172 223 ft 144 kts 202°
2026-05-05 06:28 1.37317 103.98772 51 ft 143 kts 201°
2026-05-05 06:29 1.36453 103.98409 30 ft 107 kts 202°
2026-05-05 06:29 1.36010 103.98222 30 ft 31 kts 203°
2026-05-05 06:29 1.35918 103.98182 30 ft 13 kts 203°
2026-05-05 06:29 1.35833 103.98147 30 ft 14 kts 203°
2026-05-05 06:30 1.35741 103.98121 30 ft 14 kts 188°
2026-05-05 06:30 1.35630 103.98118 30 ft 17 kts 175°
2026-05-05 06:30 1.35527 103.98140 30 ft 11 kts 126°
2026-05-05 06:30 1.35545 103.98211 30 ft 14 kts 43°
2026-05-05 06:31 1.35648 103.98260 30 ft 16 kts 22°
2026-05-05 06:31 1.35755 103.98307 30 ft 18 kts 24°
2026-05-05 06:31 1.35871 103.98358 30 ft 19 kts 24°
2026-05-05 06:31 1.35998 103.98412 30 ft 20 kts 19°
2026-05-05 06:32 1.36128 103.98464 30 ft 20 kts 22°
2026-05-05 06:32 1.36263 103.98518 30 ft 22 kts 22°
2026-05-05 06:32 1.36391 103.98573 30 ft 17 kts 23°
2026-05-05 06:32 1.36507 103.98622 30 ft 19 kts 24°
2026-05-05 06:33 1.36627 103.98674 30 ft 20 kts 23°
2026-05-05 06:33 1.36754 103.98728 30 ft 19 kts 23°
2026-05-05 06:33 1.36825 103.98798 30 ft 11 kts 96°
2026-05-05 06:33 1.36796 103.98880 30 ft 17 kts 112°
2026-05-05 06:34 1.36739 103.99016 30 ft 22 kts 112°
2026-05-05 06:34 1.36678 103.99158 30 ft 22 kts 113°
2026-05-05 06:34 1.36617 103.99301 30 ft 23 kts 113°
2026-05-05 06:34 1.36554 103.99450 30 ft 24 kts 112°
2026-05-05 06:35 1.36518 103.99538 30 ft 4 kts 112°
2026-05-05 06:35 1.36496 103.99588 30 ft 10 kts 123°
2026-05-05 06:35 1.36430 103.99598 30 ft 10 kts 197°
2026-05-05 06:35 1.36364 103.99561 30 ft 12 kts 223°
2026-05-05 06:36 1.36313 103.99491 30 ft 12 kts 234°
2026-05-05 06:36 1.36255 103.99426 30 ft 13 kts 215°
2026-05-05 06:36 1.36181 103.99393 30 ft 12 kts 203°
2026-05-05 06:36 1.36099 103.99358 30 ft 14 kts 203°
2026-05-05 06:37 1.36006 103.99319 30 ft 15 kts 202°
2026-05-05 06:37 1.35913 103.99280 30 ft 13 kts 203°
2026-05-05 06:37 1.35822 103.99242 30 ft 15 kts 203°
2026-05-05 06:37 1.35784 103.99205 30 ft 6 kts 263°
2026-05-05 06:38 1.35798 103.99164 30 ft 5 kts 291°
2026-05-05 06:38 1.35800 103.99158 30 ft 3 kts 292°
2026-05-05 06:38 1.35804 103.99148 30 ft 0 kts 292°